CZ-6A DEB

Satellite information

Favourite Embed

Satellite Type and Status

DEBRISIN ORBIT

Key statistics

Satellite CZ-6A DEB at a glance.

Uptime

1073

Days in orbit

Revolutions

≈ 14.2

Per day

Orbit

SSO

Sun Synchronous Orbit

Inclination

98.9

Latest

Satellite identification and parameters

Extended collection of information and parameters for CZ-6A DEB.

Object identification

Identified? True

Debris? True

Object name: CZ-6A DEB

International designator: 2022-151ADA

Object number (NORAD): 56282

Object ID (CCSDS): 56282

Country: PEOPLES REPUBLIC OF CHINA (PRC)

Current information (Y/N): Y

RCS size: SMALL

Orbital parameters

Period: 101.49 minutes

Inclination: 98.859 deg

SMA: 7207.364 km

Apoapsis: 880.852 km

Periapsis: 777.605 km

RAAN: 296.3585 deg

Eccentricy: 0.0071626

Argument of periapsis: 335.6035 deg

Mean anomaly: 24.1756 deg

Mean motion: 14.18855222 rev/day

Mean motion (dot): 0.00005313 rev/day2

B* drag term: 0.0025082 1/REarth

Two-line elements (TLE)

Creation date: Oct. 17, 2025, 6:56 a.m.

Reference frame: TEME

Reference center: EARTH

Epoch: Oct. 16, 2025, 6:16 a.m. UTC

TLE line 0: 0 CZ-6A DEB

TLE line 1: 1 56282U 22151ADA 25289.26152367 .00005313 00000-0 25082-2 0 9993

TLE line 2: 2 56282 98.8590 296.3585 0071626 335.6035 24.1756 14.18855222132952

Live tracking on map

Real-time ground track for satellite CZ-6A DEB.

In-orbit conjunctions

A list of the most updated potential collisions computed for object CZ-6A DEB.

Target Orbit TCA Probability of collision Miss distance Type
METEOR 1-17 LEO 2025-08-08 09:44:03 0.0009529161 340.0 (m) PAYLOAD
SL-3 R/B LEO 2025-06-24 12:08:40 0.0001379783 423.0 (m) ROCKET BODY
TIMATION 1 LEO 2025-01-24 05:54:27 0.0001265681 831.0 (m) PAYLOAD
COSMOS 2219 LEO 2024-09-23 10:53:45 0.0002993159 528.0 (m) PAYLOAD
EXPLORER 20 LEO 2024-06-28 05:58:40 0.0006273393 452.0 (m) PAYLOAD

Associated space launch

Chinese satellite reported for atmospheric/ocean/environmental/spatial parameter research purposes, details TBD.

CZ-6A DEB was lifted into orbit during the mission ‘Long March 6A | Yunhai 3’, on board a Long March 6A space rocket.

The launch took place on Nov. 11, 2022, 10:52 p.m. from Launch Complex 9A.

For more information about the launch, click the button.

Launch to space Long March 6A | Yunhai 3
Long March 6A | Yunhai 3

Agency: N/A

Status: Launch Successful

Launch date: Nov. 11, 2022, 10:52 p.m. UTC

Rocket: Long March 6A

Launch pad: Launch Complex 9A

Location: Taiyuan Satellite Launch Center, People's Republic of China

...

Latest news about this satellite

There are no fresh news available about this satellite. Check back as we update our databases every day.


Newsletter sign-up

Weekly statistics, charts and insights to help you stay on top of the space industry.